User: anonymous   Login
Location: Caltech
(34.1382°N, 118.1253°W)
Time: 13:38:04
(UTC-08:00)
Language:

Meteor 2-4 Rocket - Orbit

View from above orbital plane
View from above orbital plane
View from above satellite
View from above satellite

Ground track
Ground track

The orbit data is extracted from the following two-line orbital elements,

1 11289U 79021B   14331.53678178  .00000062  00000-0  26764-4 0  7767
2 11289 081.2466 353.9950 0075655 000.7563 105.8456 14.11464920839262
Epoch (UTC): 27 November 2014 12:52:57
Eccentricity: 0.0075655
inclination: 81.2466°
perigee height: 799 km
apogee height: 909 km
right ascension of ascending node: 353.9950°
argument of perigee: 0.7563°
revolutions per day: 14.11464920
mean anomaly at epoch: 105.8456°
orbit number at epoch: 83926

The dashed part of the orbit path shows where the satellite is in the earth's shadow,  

DLR